Time,TemperatureF,DewpointF,PressureIn,WindDirection,WindDirectionDegrees,WindSpeedMPH,WindSpeedGustMPH,Humidity,HourlyPrecipIn,Conditions,Clouds,dailyrainin,SoftwareType,DateUTC
2013-09-08 00:01:00,62.0,60.0,29.32,ESE,112,2.0,2.0,92,0.00,,,0.00,Rainwise IP-100,2013-09-08 04:01:00,
2013-09-08 00:06:00,62.0,60.0,29.32,ESE,112,2.0,2.0,92,0.00,,,0.00,Rainwise IP-100,2013-09-08 04:06:00,
2013-09-08 00:11:00,62.0,60.0,29.32,ESE,112,2.0,2.0,92,0.00,,,0.00,Rainwise IP-100,2013-09-08 04:11:00,
2013-09-08 00:16:00,62.0,60.0,29.32,ESE,112,2.0,2.0,92,0.00,,,0.00,Rainwise IP-100,2013-09-08 04:16:00,
2013-09-08 00:21:00,62.0,60.0,29.32,ESE,112,2.0,2.0,92,0.00,,,0.00,Rainwise IP-100,2013-09-08 04:21:00,
2013-09-08 00:26:00,62.0,60.0,29.32,ESE,112,2.0,2.0,92,0.00,,,0.00,Rainwise IP-100,2013-09-08 04:26:00,
2013-09-08 00:31:00,62.0,60.0,29.32,ESE,112,2.0,2.0,92,0.00,,,0.00,Rainwise IP-100,2013-09-08 04:31:00,
2013-09-08 00:36:00,62.0,60.0,29.32,ESE,112,2.0,2.0,92,0.00,,,0.00,Rainwise IP-100,2013-09-08 04:36:00,
2013-09-08 00:41:00,62.0,60.0,29.32,ESE,112,2.0,2.0,92,0.00,,,0.00,Rainwise IP-100,2013-09-08 04:41:00,
2013-09-08 00:46:00,62.0,60.0,29.32,ESE,112,2.0,2.0,92,0.00,,,0.00,Rainwise IP-100,2013-09-08 04:46:00,
2013-09-08 00:51:00,62.0,60.0,29.32,ESE,112,2.0,2.0,92,0.00,,,0.00,Rainwise IP-100,2013-09-08 04:51:00,
2013-09-08 00:56:00,62.0,60.0,29.32,ESE,112,2.0,2.0,92,0.00,,,0.00,Rainwise IP-100,2013-09-08 04:56:00,
2013-09-08 01:01:00,62.0,60.0,29.32,ESE,112,2.0,2.0,92,0.00,,,0.00,Rainwise IP-100,2013-09-08 05:01:00,
2013-09-08 01:06:00,63.0,60.0,29.30,NW,315,0.0,2.0,89,0.00,,,0.00,Rainwise IP-100,2013-09-08 05:06:00,
2013-09-08 01:11:00,63.0,59.0,29.30,NW,315,0.0,2.0,88,0.00,,,0.00,Rainwise IP-100,2013-09-08 05:11:00,
2013-09-08 01:16:00,63.0,59.0,29.30,WSW,247,2.0,2.0,88,0.00,,,0.00,Rainwise IP-100,2013-09-08 05:16:00,
2013-09-08 01:21:00,63.0,60.0,29.30,SW,225,0.0,2.0,89,0.00,,,0.00,Rainwise IP-100,2013-09-08 05:21:00,
2013-09-08 01:26:00,63.0,60.0,29.30,SW,225,0.0,0.0,89,0.00,,,0.00,Rainwise IP-100,2013-09-08 05:26:00,
2013-09-08 01:31:00,63.0,59.0,29.30,WSW,247,0.0,0.0,88,0.00,,,0.00,Rainwise IP-100,2013-09-08 05:31:00,
2013-09-08 01:36:00,63.0,59.0,29.30,WSW,247,0.0,0.0,88,0.00,,,0.00,Rainwise IP-100,2013-09-08 05:36:00,
2013-09-08 01:41:00,63.0,59.0,29.30,WSW,247,0.0,0.0,88,0.00,,,0.00,Rainwise IP-100,2013-09-08 05:41:00,
2013-09-08 01:46:00,63.0,59.0,29.30,WSW,247,0.0,0.0,88,0.00,,,0.00,Rainwise IP-100,2013-09-08 05:46:00,
2013-09-08 01:51:00,63.0,59.0,29.30,WSW,247,0.0,0.0,88,0.00,,,0.00,Rainwise IP-100,2013-09-08 05:51:00,
2013-09-08 01:56:00,63.0,59.0,29.30,WSW,247,0.0,0.0,88,0.00,,,0.00,Rainwise IP-100,2013-09-08 05:56:00,
2013-09-08 02:01:00,63.0,59.0,29.30,WSW,247,0.0,0.0,88,0.00,,,0.00,Rainwise IP-100,2013-09-08 06:01:00,
2013-09-08 02:06:00,63.0,59.0,29.30,WSW,247,0.0,0.0,88,0.00,,,0.00,Rainwise IP-100,2013-09-08 06:06:00,
2013-09-08 02:11:00,63.0,59.0,29.30,WSW,247,0.0,0.0,88,0.00,,,0.00,Rainwise IP-100,2013-09-08 06:11:00,
2013-09-08 02:16:00,63.0,59.0,29.30,WSW,247,0.0,0.0,88,0.00,,,0.00,Rainwise IP-100,2013-09-08 06:16:00,
2013-09-08 02:21:00,63.0,59.0,29.30,WSW,247,0.0,0.0,88,0.00,,,0.00,Rainwise IP-100,2013-09-08 06:21:00,
2013-09-08 02:26:00,63.0,59.0,29.30,WSW,247,0.0,0.0,88,0.00,,,0.00,Rainwise IP-100,2013-09-08 06:26:00,
2013-09-08 02:31:00,63.0,59.0,29.30,WSW,247,0.0,0.0,88,0.00,,,0.00,Rainwise IP-100,2013-09-08 06:31:00,
2013-09-08 02:36:00,63.0,59.0,29.30,WSW,247,0.0,0.0,88,0.00,,,0.00,Rainwise IP-100,2013-09-08 06:36:00,
2013-09-08 02:41:00,63.0,59.0,29.30,WSW,247,0.0,0.0,88,0.00,,,0.00,Rainwise IP-100,2013-09-08 06:41:00,
2013-09-08 02:46:00,63.0,59.0,29.30,WSW,247,0.0,0.0,88,0.00,,,0.00,Rainwise IP-100,2013-09-08 06:46:00,
2013-09-08 02:51:00,63.0,59.0,29.30,WSW,247,0.0,0.0,88,0.00,,,0.00,Rainwise IP-100,2013-09-08 06:51:00,
2013-09-08 02:56:00,63.0,59.0,29.30,WSW,247,0.0,0.0,88,0.00,,,0.00,Rainwise IP-100,2013-09-08 06:56:00,
2013-09-08 03:01:00,63.0,59.0,29.30,WSW,247,0.0,0.0,88,0.00,,,0.00,Rainwise IP-100,2013-09-08 07:01:00,
2013-09-08 03:06:00,63.0,59.0,29.30,WSW,247,0.0,0.0,88,0.00,,,0.00,Rainwise IP-100,2013-09-08 07:06:00,
2013-09-08 03:11:00,64.0,57.0,29.25,SE,135,1.0,3.0,79,0.00,,,0.00,Rainwise IP-100,2013-09-08 07:11:00,
2013-09-08 03:16:00,64.0,57.0,29.25,SE,135,1.0,3.0,79,0.00,,,0.00,Rainwise IP-100,2013-09-08 07:16:00,
2013-09-08 03:21:00,64.0,57.0,29.25,SE,135,1.0,3.0,79,0.00,,,0.00,Rainwise IP-100,2013-09-08 07:21:00,
2013-09-08 03:26:00,64.0,57.0,29.25,SE,135,1.0,3.0,79,0.00,,,0.00,Rainwise IP-100,2013-09-08 07:26:00,
2013-09-08 03:31:00,64.0,57.0,29.24,SW,225,5.0,6.0,80,0.00,,,0.00,Rainwise IP-100,2013-09-08 07:31:00,
2013-09-08 03:36:00,64.0,57.0,29.24,NNW,337,3.0,5.0,80,0.00,,,0.00,Rainwise IP-100,2013-09-08 07:36:00,
2013-09-08 03:41:00,63.0,57.0,29.24,NW,315,3.0,6.0,81,0.00,,,0.00,Rainwise IP-100,2013-09-08 07:41:00,
2013-09-08 03:46:00,63.0,57.0,29.25,SW,225,3.0,7.0,82,0.00,,,0.00,Rainwise IP-100,2013-09-08 07:46:00,
2013-09-08 03:51:00,63.0,57.0,29.25,West,270,2.0,6.0,83,0.00,,,0.00,Rainwise IP-100,2013-09-08 07:51:00,
2013-09-08 03:56:00,63.0,57.0,29.24,WNW,292,0.0,4.0,83,0.00,,,0.00,Rainwise IP-100,2013-09-08 07:56:00,
2013-09-08 04:01:00,63.0,59.0,29.24,West,270,1.0,5.0,86,0.00,,,0.00,Rainwise IP-100,2013-09-08 08:01:00,
2013-09-08 04:06:00,63.0,58.0,29.24,SW,225,0.0,6.0,85,0.00,,,0.00,Rainwise IP-100,2013-09-08 08:06:00,
2013-09-08 04:11:00,63.0,59.0,29.24,South,180,0.0,4.0,86,0.00,,,0.00,Rainwise IP-100,2013-09-08 08:11:00,
2013-09-08 04:16:00,63.0,59.0,29.24,SW,225,0.0,6.0,87,0.00,,,0.00,Rainwise IP-100,2013-09-08 08:16:00,
2013-09-08 04:21:00,63.0,59.0,29.24,NNW,337,1.0,6.0,87,0.00,,,0.00,Rainwise IP-100,2013-09-08 08:21:00,
2013-09-08 04:26:00,63.0,59.0,29.24,SW,225,1.0,7.0,87,0.00,,,0.00,Rainwise IP-100,2013-09-08 08:26:00,
2013-09-08 04:31:00,63.0,59.0,29.24,WNW,292,0.0,6.0,88,0.00,,,0.00,Rainwise IP-100,2013-09-08 08:31:00,
2013-09-08 04:36:00,63.0,59.0,29.24,East,90,1.0,5.0,88,0.00,,,0.00,Rainwise IP-100,2013-09-08 08:36:00,
2013-09-08 04:41:00,63.0,59.0,29.24,SW,225,1.0,7.0,87,0.00,,,0.00,Rainwise IP-100,2013-09-08 08:41:00,
2013-09-08 04:46:00,63.0,59.0,29.23,SW,225,4.0,6.0,87,0.00,,,0.00,Rainwise IP-100,2013-09-08 08:46:00,
2013-09-08 04:51:00,63.0,59.0,29.23,SSE,157,0.0,9.0,87,0.00,,,0.00,Rainwise IP-100,2013-09-08 08:51:00,
2013-09-08 04:56:00,63.0,59.0,29.23,SSW,202,0.0,6.0,87,0.00,,,0.00,Rainwise IP-100,2013-09-08 08:56:00,
2013-09-08 05:01:00,63.0,59.0,29.23,NW,315,1.0,6.0,88,0.00,,,0.00,Rainwise IP-100,2013-09-08 09:01:00,
2013-09-08 05:06:00,63.0,59.0,29.23,WSW,247,0.0,5.0,88,0.00,,,0.00,Rainwise IP-100,2013-09-08 09:06:00,
2013-09-08 05:11:00,62.0,59.0,29.23,WNW,292,2.0,2.0,90,0.00,,,0.00,Rainwise IP-100,2013-09-08 09:11:00,
2013-09-08 05:16:00,62.0,58.0,29.23,WSW,247,2.0,6.0,88,0.00,,,0.00,Rainwise IP-100,2013-09-08 09:16:00,
2013-09-08 05:21:00,62.0,59.0,29.23,East,90,0.0,5.0,90,0.00,,,0.00,Rainwise IP-100,2013-09-08 09:21:00,
2013-09-08 05:26:00,62.0,59.0,29.23,West,270,0.0,5.0,90,0.00,,,0.00,Rainwise IP-100,2013-09-08 09:26:00,
2013-09-08 05:31:00,62.0,59.0,29.23,WSW,247,0.0,6.0,89,0.00,,,0.00,Rainwise IP-100,2013-09-08 09:31:00,
2013-09-08 05:36:00,62.0,59.0,29.22,WSW,247,0.0,6.0,91,0.00,,,0.00,Rainwise IP-100,2013-09-08 09:36:00,
2013-09-08 05:41:00,61.0,59.0,29.22,SE,135,0.0,4.0,92,0.00,,,0.00,Rainwise IP-100,2013-09-08 09:41:00,
2013-09-08 05:46:00,61.0,59.0,29.22,WSW,247,3.0,6.0,92,0.00,,,0.00,Rainwise IP-100,2013-09-08 09:46:00,
2013-09-08 05:50:00,61.0,59.0,29.22,West,270,0.0,4.0,92,0.00,,,0.00,Rainwise IP-100,2013-09-08 09:50:00,
2013-09-08 05:55:00,61.0,59.0,29.22,SE,135,2.0,4.0,94,0.00,,,0.00,Rainwise IP-100,2013-09-08 09:55:00,
2013-09-08 06:00:00,61.0,59.0,29.22,South,180,1.0,3.0,94,0.00,,,0.00,Rainwise IP-100,2013-09-08 10:00:00,
2013-09-08 06:05:00,61.0,59.0,29.22,West,270,0.0,5.0,94,0.00,,,0.00,Rainwise IP-100,2013-09-08 10:05:00,
2013-09-08 06:10:00,60.0,58.0,29.22,WSW,247,3.0,4.0,95,0.00,,,0.00,Rainwise IP-100,2013-09-08 10:10:00,
2013-09-08 06:15:00,60.0,58.0,29.23,ENE,67,0.0,4.0,95,0.00,,,0.00,Rainwise IP-100,2013-09-08 10:15:00,
2013-09-08 06:20:00,60.0,58.0,29.23,North,360,2.0,5.0,95,0.00,,,0.00,Rainwise IP-100,2013-09-08 10:20:00,
2013-09-08 06:25:00,61.0,59.0,29.22,WSW,247,1.0,4.0,94,0.00,,,0.00,Rainwise IP-100,2013-09-08 10:25:00,
2013-09-08 06:30:00,61.0,59.0,29.22,WSW,247,0.0,2.0,94,0.00,,,0.00,Rainwise IP-100,2013-09-08 10:30:00,
2013-09-08 06:35:00,61.0,59.0,29.22,WSW,247,0.0,2.0,94,0.00,,,0.00,Rainwise IP-100,2013-09-08 10:35:00,
2013-09-08 06:40:00,61.0,59.0,29.22,WSW,247,0.0,2.0,94,0.00,,,0.00,Rainwise IP-100,2013-09-08 10:40:00,
2013-09-08 06:45:00,61.0,59.0,29.22,WSW,247,0.0,2.0,94,0.00,,,0.00,Rainwise IP-100,2013-09-08 10:45:00,
2013-09-08 06:50:00,61.0,59.0,29.22,WSW,247,0.0,2.0,94,0.00,,,0.00,Rainwise IP-100,2013-09-08 10:50:00,
2013-09-08 06:55:00,61.0,59.0,29.21,ESE,112,0.0,2.0,93,0.00,,,0.00,Rainwise IP-100,2013-09-08 10:55:00,
2013-09-08 07:00:00,61.0,59.0,29.22,WNW,292,2.0,3.0,93,0.00,,,0.00,Rainwise IP-100,2013-09-08 11:00:00,
2013-09-08 07:05:00,61.0,59.0,29.22,WNW,292,0.0,3.0,93,0.00,,,0.00,Rainwise IP-100,2013-09-08 11:05:00,
2013-09-08 07:10:00,61.0,59.0,29.22,WNW,292,0.0,3.0,93,0.00,,,0.00,Rainwise IP-100,2013-09-08 11:10:00,
2013-09-08 07:15:00,61.0,59.0,29.22,WNW,292,0.0,3.0,93,0.00,,,0.00,Rainwise IP-100,2013-09-08 11:15:00,
2013-09-08 07:20:00,61.0,59.0,29.22,WNW,292,0.0,3.0,93,0.00,,,0.00,Rainwise IP-100,2013-09-08 11:20:00,
2013-09-08 07:25:00,61.0,59.0,29.22,WNW,292,0.0,3.0,93,0.00,,,0.00,Rainwise IP-100,2013-09-08 11:25:00,
2013-09-08 07:30:00,61.0,59.0,29.22,WNW,292,0.0,3.0,93,0.00,,,0.00,Rainwise IP-100,2013-09-08 11:30:00,
2013-09-08 07:35:00,61.0,59.0,29.22,WNW,292,0.0,3.0,93,0.00,,,0.00,Rainwise IP-100,2013-09-08 11:35:00,
2013-09-08 07:40:00,62.0,60.0,29.21,WNW,292,3.0,7.0,92,0.00,,,0.00,Rainwise IP-100,2013-09-08 11:40:00,
2013-09-08 07:45:00,62.0,60.0,29.21,WNW,292,3.0,7.0,92,0.00,,,0.00,Rainwise IP-100,2013-09-08 11:45:00,
2013-09-08 07:50:00,62.0,60.0,29.21,WNW,292,3.0,7.0,92,0.00,,,0.00,Rainwise IP-100,2013-09-08 11:50:00,
2013-09-08 07:55:00,63.0,60.0,29.21,SSE,157,3.0,7.0,89,0.00,,,0.00,Rainwise IP-100,2013-09-08 11:55:00,
2013-09-08 08:00:00,63.0,59.0,29.21,WNW,292,6.0,6.0,88,0.00,,,0.00,Rainwise IP-100,2013-09-08 12:00:00,
2013-09-08 08:05:00,63.0,59.0,29.21,WNW,292,6.0,6.0,88,0.00,,,0.00,Rainwise IP-100,2013-09-08 12:05:00,
2013-09-08 08:10:00,63.0,59.0,29.21,West,270,4.0,6.0,88,0.00,,,0.00,Rainwise IP-100,2013-09-08 12:10:00,
2013-09-08 08:15:00,63.0,59.0,29.21,West,270,4.0,6.0,88,0.00,,,0.00,Rainwise IP-100,2013-09-08 12:15:00,
2013-09-08 08:20:00,63.0,59.0,29.21,West,270,4.0,6.0,88,0.00,,,0.00,Rainwise IP-100,2013-09-08 12:20:00,
2013-09-08 08:25:00,63.0,59.0,29.21,West,270,4.0,6.0,88,0.00,,,0.00,Rainwise IP-100,2013-09-08 12:25:00,
2013-09-08 08:30:00,63.0,59.0,29.21,West,270,4.0,6.0,88,0.00,,,0.00,Rainwise IP-100,2013-09-08 12:30:00,
2013-09-08 08:35:00,63.0,59.0,29.21,West,270,4.0,6.0,88,0.00,,,0.00,Rainwise IP-100,2013-09-08 12:35:00,
2013-09-08 08:40:00,63.0,59.0,29.21,West,270,4.0,6.0,88,0.00,,,0.00,Rainwise IP-100,2013-09-08 12:40:00,
2013-09-08 08:45:00,63.0,59.0,29.21,West,270,4.0,6.0,88,0.00,,,0.00,Rainwise IP-100,2013-09-08 12:45:00,
2013-09-08 08:50:00,63.0,59.0,29.21,West,270,4.0,6.0,88,0.00,,,0.00,Rainwise IP-100,2013-09-08 12:50:00,
2013-09-08 08:55:00,63.0,59.0,29.21,West,270,4.0,6.0,88,0.00,,,0.00,Rainwise IP-100,2013-09-08 12:55:00,
2013-09-08 09:00:00,63.0,59.0,29.21,West,270,4.0,6.0,88,0.00,,,0.00,Rainwise IP-100,2013-09-08 13:00:00,
2013-09-08 09:05:00,63.0,59.0,29.21,West,270,4.0,6.0,88,0.00,,,0.00,Rainwise IP-100,2013-09-08 13:05:00,
2013-09-08 09:10:00,63.0,59.0,29.21,West,270,4.0,6.0,88,0.00,,,0.00,Rainwise IP-100,2013-09-08 13:10:00,
2013-09-08 09:15:00,63.0,59.0,29.21,West,270,4.0,6.0,88,0.00,,,0.00,Rainwise IP-100,2013-09-08 13:15:00,
2013-09-08 09:20:00,63.0,59.0,29.21,West,270,4.0,6.0,88,0.00,,,0.00,Rainwise IP-100,2013-09-08 13:20:00,
2013-09-08 09:25:00,63.0,59.0,29.21,West,270,4.0,6.0,88,0.00,,,0.00,Rainwise IP-100,2013-09-08 13:25:00,
2013-09-08 09:30:00,63.0,59.0,29.21,West,270,4.0,6.0,88,0.00,,,0.00,Rainwise IP-100,2013-09-08 13:30:00,
2013-09-08 09:35:00,63.0,59.0,29.21,West,270,4.0,6.0,88,0.00,,,0.00,Rainwise IP-100,2013-09-08 13:35:00,
2013-09-08 09:40:00,63.0,59.0,29.21,West,270,4.0,6.0,88,0.00,,,0.00,Rainwise IP-100,2013-09-08 13:40:00,
2013-09-08 09:45:00,63.0,59.0,29.21,West,270,4.0,6.0,88,0.00,,,0.00,Rainwise IP-100,2013-09-08 13:45:00,
2013-09-08 09:50:00,70.0,62.0,29.22,WNW,292,2.0,6.0,77,0.00,,,0.00,Rainwise IP-100,2013-09-08 13:50:00,
2013-09-08 09:55:00,70.0,62.0,29.22,WNW,292,2.0,6.0,77,0.00,,,0.00,Rainwise IP-100,2013-09-08 13:55:00,
2013-09-08 10:00:00,70.0,62.0,29.22,NW,315,5.0,7.0,76,0.00,,,0.00,Rainwise IP-100,2013-09-08 14:00:00,
2013-09-08 10:05:00,71.0,61.0,29.22,West,270,10.0,14.0,71,0.00,,,0.00,Rainwise IP-100,2013-09-08 14:05:00,
2013-09-08 10:10:00,71.0,61.0,29.22,West,270,4.0,14.0,73,0.00,,,0.00,Rainwise IP-100,2013-09-08 14:10:00,
2013-09-08 10:15:00,70.0,61.0,29.22,NNW,337,8.0,9.0,73,0.00,,,0.00,Rainwise IP-100,2013-09-08 14:15:00,
2013-09-08 10:20:00,70.0,61.0,29.22,NW,315,2.0,10.0,74,0.00,,,0.00,Rainwise IP-100,2013-09-08 14:20:00,
2013-09-08 10:25:00,70.0,62.0,29.22,NW,315,16.0,16.0,75,0.00,,,0.00,Rainwise IP-100,2013-09-08 14:25:00,
2013-09-08 10:30:00,70.0,61.0,29.22,NNE,22,2.0,16.0,73,0.00,,,0.00,Rainwise IP-100,2013-09-08 14:30:00,
2013-09-08 10:35:00,71.0,61.0,29.22,NW,315,5.0,10.0,72,0.00,,,0.00,Rainwise IP-100,2013-09-08 14:35:00,
2013-09-08 10:40:00,71.0,61.0,29.22,NW,315,6.0,10.0,71,0.00,,,0.00,Rainwise IP-100,2013-09-08 14:40:00,
2013-09-08 10:45:00,70.0,62.0,29.22,WSW,247,8.0,8.0,75,0.00,,,0.00,Rainwise IP-100,2013-09-08 14:45:00,
2013-09-08 10:50:00,70.0,62.0,29.23,WNW,292,5.0,10.0,75,0.00,,,0.00,Rainwise IP-100,2013-09-08 14:50:00,
2013-09-08 10:55:00,70.0,62.0,29.23,North,360,4.0,9.0,77,0.00,,,0.00,Rainwise IP-100,2013-09-08 14:55:00,
2013-09-08 11:00:00,70.0,62.0,29.23,NNE,22,5.0,6.0,77,0.00,,,0.00,Rainwise IP-100,2013-09-08 15:00:00,
2013-09-08 11:05:00,71.0,63.0,29.23,NW,315,3.0,12.0,76,0.00,,,0.00,Rainwise IP-100,2013-09-08 15:05:00,
2013-09-08 11:10:00,72.0,62.0,29.22,West,270,3.0,9.0,72,0.00,,,0.00,Rainwise IP-100,2013-09-08 15:10:00,
2013-09-08 11:15:00,71.0,61.0,29.22,NE,45,1.0,9.0,72,0.00,,,0.00,Rainwise IP-100,2013-09-08 15:15:00,
2013-09-08 11:20:00,71.0,61.0,29.23,NW,315,6.0,7.0,71,0.00,,,0.00,Rainwise IP-100,2013-09-08 15:20:00,
2013-09-08 11:25:00,70.0,62.0,29.23,NNW,337,7.0,12.0,75,0.00,,,0.00,Rainwise IP-100,2013-09-08 15:25:00,
2013-09-08 11:30:00,69.0,61.0,29.23,WNW,292,2.0,12.0,76,0.00,,,0.00,Rainwise IP-100,2013-09-08 15:30:00,
2013-09-08 11:35:00,69.0,60.0,29.23,North,360,8.0,8.0,74,0.00,,,0.00,Rainwise IP-100,2013-09-08 15:35:00,
2013-09-08 11:40:00,69.0,60.0,29.23,NW,315,9.0,15.0,74,0.00,,,0.00,Rainwise IP-100,2013-09-08 15:40:00,
2013-09-08 11:45:00,69.0,60.0,29.23,NW,315,6.0,14.0,75,0.00,,,0.00,Rainwise IP-100,2013-09-08 15:45:00,
2013-09-08 11:50:00,68.0,60.0,29.24,NNW,337,8.0,25.0,75,0.00,,,0.00,Rainwise IP-100,2013-09-08 15:50:00,
2013-09-08 11:55:00,67.0,59.0,29.24,NW,315,13.0,18.0,75,0.00,,,0.00,Rainwise IP-100,2013-09-08 15:55:00,
2013-09-08 12:00:00,67.0,59.0,29.25,NNW,337,9.0,22.0,74,0.00,,,0.00,Rainwise IP-100,2013-09-08 16:00:00,
2013-09-08 12:05:00,67.0,58.0,29.25,NNW,337,10.0,20.0,73,0.00,,,0.00,Rainwise IP-100,2013-09-08 16:05:00,
2013-09-08 12:10:00,68.0,59.0,29.25,NW,315,7.0,17.0,72,0.00,,,0.00,Rainwise IP-100,2013-09-08 16:10:00,
2013-09-08 12:15:00,68.0,57.0,29.25,NW,315,9.0,19.0,68,0.00,,,0.00,Rainwise IP-100,2013-09-08 16:15:00,
2013-09-08 12:20:00,68.0,57.0,29.25,NNW,337,9.0,21.0,68,0.00,,,0.00,Rainwise IP-100,2013-09-08 16:20:00,
2013-09-08 12:25:00,68.0,56.0,29.25,NNW,337,12.0,14.0,67,0.00,,,0.00,Rainwise IP-100,2013-09-08 16:25:00,
2013-09-08 12:30:00,69.0,57.0,29.25,WNW,292,10.0,16.0,67,0.00,,,0.00,Rainwise IP-100,2013-09-08 16:30:00,
2013-09-08 12:35:00,69.0,56.0,29.25,NNW,337,12.0,18.0,64,0.00,,,0.00,Rainwise IP-100,2013-09-08 16:35:00,
2013-09-08 12:40:00,69.0,56.0,29.25,WNW,292,6.0,14.0,63,0.00,,,0.00,Rainwise IP-100,2013-09-08 16:40:00,
2013-09-08 12:45:00,68.0,54.0,29.25,NW,315,7.0,16.0,63,0.00,,,0.00,Rainwise IP-100,2013-09-08 16:45:00,
2013-09-08 12:50:00,69.0,56.0,29.26,WNW,292,9.0,15.0,65,0.00,,,0.00,Rainwise IP-100,2013-09-08 16:50:00,
2013-09-08 12:55:00,69.0,54.0,29.26,NW,315,10.0,22.0,61,0.00,,,0.00,Rainwise IP-100,2013-09-08 16:55:00,
2013-09-08 13:00:00,69.0,54.0,29.25,WNW,292,7.0,20.0,60,0.00,,,0.00,Rainwise IP-100,2013-09-08 17:00:00,
2013-09-08 13:05:00,69.0,54.0,29.25,WNW,292,4.0,19.0,60,0.00,,,0.00,Rainwise IP-100,2013-09-08 17:05:00,
2013-09-08 13:10:00,68.0,53.0,29.26,NNW,337,6.0,16.0,59,0.00,,,0.00,Rainwise IP-100,2013-09-08 17:10:00,
2013-09-08 13:15:00,68.0,52.0,29.26,SE,135,2.0,20.0,57,0.00,,,0.00,Rainwise IP-100,2013-09-08 17:15:00,
2013-09-08 13:20:00,69.0,51.0,29.27,East,90,3.0,11.0,54,0.00,,,0.00,Rainwise IP-100,2013-09-08 17:20:00,
2013-09-08 13:25:00,69.0,50.0,29.27,WNW,292,6.0,19.0,51,0.00,,,0.00,Rainwise IP-100,2013-09-08 17:25:00,
2013-09-08 13:30:00,69.0,49.0,29.27,NNW,337,10.0,15.0,49,0.00,,,0.00,Rainwise IP-100,2013-09-08 17:30:00,
2013-09-08 13:35:00,69.0,49.0,29.27,South,180,6.0,17.0,49,0.00,,,0.00,Rainwise IP-100,2013-09-08 17:35:00,
2013-09-08 13:40:00,69.0,47.0,29.27,WSW,247,10.0,15.0,46,0.00,,,0.00,Rainwise IP-100,2013-09-08 17:40:00,
2013-09-08 13:45:00,69.0,47.0,29.27,NW,315,11.0,16.0,46,0.00,,,0.00,Rainwise IP-100,2013-09-08 17:45:00,
2013-09-08 13:50:00,69.0,47.0,29.29,NNW,337,10.0,17.0,46,0.00,,,0.00,Rainwise IP-100,2013-09-08 17:50:00,
2013-09-08 13:55:00,69.0,46.0,29.29,North,360,13.0,20.0,43,0.00,,,0.00,Rainwise IP-100,2013-09-08 17:55:00,
2013-09-08 14:00:00,69.0,46.0,29.29,NNW,337,13.0,20.0,43,0.00,,,0.00,Rainwise IP-100,2013-09-08 18:00:00,
2013-09-08 14:05:00,69.0,45.0,29.29,NW,315,9.0,18.0,42,0.00,,,0.00,Rainwise IP-100,2013-09-08 18:05:00,
2013-09-08 14:10:00,69.0,46.0,29.29,NNW,337,4.0,16.0,43,0.00,,,0.00,Rainwise IP-100,2013-09-08 18:10:00,
2013-09-08 14:15:00,69.0,45.0,29.29,NNW,337,16.0,22.0,42,0.00,,,0.00,Rainwise IP-100,2013-09-08 18:15:00,
2013-09-08 14:20:00,68.0,44.0,29.29,WNW,292,6.0,20.0,42,0.00,,,0.00,Rainwise IP-100,2013-09-08 18:20:00,
2013-09-08 14:25:00,68.0,44.0,29.29,NW,315,7.0,15.0,42,0.00,,,0.00,Rainwise IP-100,2013-09-08 18:25:00,
2013-09-08 14:30:00,68.0,43.0,29.29,West,270,2.0,13.0,41,0.00,,,0.00,Rainwise IP-100,2013-09-08 18:30:00,
2013-09-08 14:35:00,69.0,45.0,29.29,NNW,337,5.0,16.0,42,0.00,,,0.00,Rainwise IP-100,2013-09-08 18:35:00,
2013-09-08 14:40:00,69.0,45.0,29.29,NNW,337,5.0,7.0,42,0.00,,,0.00,Rainwise IP-100,2013-09-08 18:40:00,
2013-09-08 14:45:00,69.0,46.0,29.29,North,360,6.0,7.0,44,0.00,,,0.00,Rainwise IP-100,2013-09-08 18:45:00,
2013-09-08 14:50:00,69.0,46.0,29.29,North,360,6.0,9.0,44,0.00,,,0.00,Rainwise IP-100,2013-09-08 18:50:00,
2013-09-08 14:55:00,70.0,45.0,29.30,NNE,22,12.0,12.0,41,0.00,,,0.00,Rainwise IP-100,2013-09-08 18:55:00,
2013-09-08 15:00:00,70.0,45.0,29.30,NNE,22,12.0,13.0,41,0.00,,,0.00,Rainwise IP-100,2013-09-08 19:00:00,
2013-09-08 15:05:00,70.0,45.0,29.30,NNE,22,9.0,13.0,41,0.00,,,0.00,Rainwise IP-100,2013-09-08 19:05:00,
2013-09-08 15:10:00,70.0,45.0,29.30,NNE,22,9.0,13.0,41,0.00,,,0.00,Rainwise IP-100,2013-09-08 19:10:00,
2013-09-08 15:15:00,70.0,45.0,29.30,NNE,22,9.0,13.0,41,0.00,,,0.00,Rainwise IP-100,2013-09-08 19:15:00,
2013-09-08 15:20:00,68.0,45.0,29.32,NW,315,9.0,13.0,43,0.00,,,0.00,Rainwise IP-100,2013-09-08 19:20:00,
2013-09-08 15:25:00,68.0,45.0,29.32,NW,315,9.0,16.0,43,0.00,,,0.00,Rainwise IP-100,2013-09-08 19:25:00,
2013-09-08 15:30:00,68.0,45.0,29.32,NW,315,9.0,16.0,43,0.00,,,0.00,Rainwise IP-100,2013-09-08 19:30:00,
2013-09-08 15:35:00,68.0,45.0,29.32,NW,315,9.0,16.0,43,0.00,,,0.00,Rainwise IP-100,2013-09-08 19:35:00,
2013-09-08 15:40:00,68.0,45.0,29.32,NW,315,9.0,16.0,43,0.00,,,0.00,Rainwise IP-100,2013-09-08 19:40:00,
2013-09-08 15:45:00,66.0,42.0,29.32,North,360,15.0,16.0,42,0.00,,,0.00,Rainwise IP-100,2013-09-08 19:45:00,
2013-09-08 15:50:00,66.0,43.0,29.33,North,360,9.0,15.0,44,0.00,,,0.00,Rainwise IP-100,2013-09-08 19:50:00,
2013-09-08 15:55:00,66.0,43.0,29.33,NNW,337,12.0,19.0,43,0.00,,,0.00,Rainwise IP-100,2013-09-08 19:55:00,
2013-09-08 16:00:00,66.0,43.0,29.35,North,360,6.0,19.0,43,0.00,,,0.00,Rainwise IP-100,2013-09-08 20:00:00,
2013-09-08 16:05:00,66.0,43.0,29.35,NW,315,6.0,13.0,44,0.00,,,0.00,Rainwise IP-100,2013-09-08 20:05:00,
2013-09-08 16:10:00,66.0,43.0,29.35,NW,315,6.0,10.0,44,0.00,,,0.00,Rainwise IP-100,2013-09-08 20:10:00,
2013-09-08 16:15:00,66.0,41.0,29.35,NNW,337,12.0,21.0,40,0.00,,,0.00,Rainwise IP-100,2013-09-08 20:15:00,
2013-09-08 16:20:00,66.0,42.0,29.34,West,270,9.0,17.0,42,0.00,,,0.00,Rainwise IP-100,2013-09-08 20:20:00,
2013-09-08 16:25:00,66.0,42.0,29.34,NW,315,9.0,15.0,42,0.00,,,0.00,Rainwise IP-100,2013-09-08 20:25:00,
2013-09-08 16:30:00,65.0,41.0,29.35,NW,315,7.0,12.0,42,0.00,,,0.00,Rainwise IP-100,2013-09-08 20:30:00,
2013-09-08 16:35:00,65.0,41.0,29.35,NW,315,7.0,9.0,42,0.00,,,0.00,Rainwise IP-100,2013-09-08 20:35:00,
2013-09-08 16:40:00,65.0,42.0,29.36,NW,315,7.0,9.0,44,0.00,,,0.00,Rainwise IP-100,2013-09-08 20:40:00,
2013-09-08 16:45:00,65.0,42.0,29.36,West,270,6.0,11.0,44,0.00,,,0.00,Rainwise IP-100,2013-09-08 20:45:00,
2013-09-08 16:50:00,65.0,42.0,29.36,North,360,10.0,16.0,44,0.00,,,0.00,Rainwise IP-100,2013-09-08 20:50:00,
2013-09-08 16:55:00,65.0,42.0,29.36,NW,315,12.0,15.0,44,0.00,,,0.00,Rainwise IP-100,2013-09-08 20:55:00,
2013-09-08 17:00:00,65.0,42.0,29.37,SW,225,8.0,15.0,44,0.00,,,0.00,Rainwise IP-100,2013-09-08 21:00:00,
2013-09-08 17:05:00,65.0,42.0,29.37,NW,315,12.0,13.0,44,0.00,,,0.00,Rainwise IP-100,2013-09-08 21:05:00,
2013-09-08 17:10:00,65.0,42.0,29.37,NW,315,3.0,13.0,44,0.00,,,0.00,Rainwise IP-100,2013-09-08 21:10:00,
2013-09-08 17:15:00,65.0,42.0,29.37,NW,315,3.0,8.0,44,0.00,,,0.00,Rainwise IP-100,2013-09-08 21:15:00,
2013-09-08 17:20:00,65.0,42.0,29.37,NW,315,3.0,8.0,44,0.00,,,0.00,Rainwise IP-100,2013-09-08 21:20:00,
2013-09-08 17:25:00,64.0,41.0,29.38,West,270,6.0,14.0,44,0.00,,,0.00,Rainwise IP-100,2013-09-08 21:25:00,
2013-09-08 17:30:00,64.0,42.0,29.38,NNW,337,9.0,12.0,45,0.00,,,0.00,Rainwise IP-100,2013-09-08 21:30:00,
2013-09-08 17:35:00,64.0,42.0,29.38,SW,225,6.0,16.0,45,0.00,,,0.00,Rainwise IP-100,2013-09-08 21:35:00,
2013-09-08 17:40:00,64.0,42.0,29.39,NW,315,9.0,10.0,45,0.00,,,0.00,Rainwise IP-100,2013-09-08 21:40:00,
2013-09-08 17:45:00,63.0,42.0,29.39,NW,315,7.0,13.0,46,0.00,,,0.00,Rainwise IP-100,2013-09-08 21:45:00,
2013-09-08 17:50:00,63.0,41.0,29.39,WNW,292,9.0,10.0,45,0.00,,,0.00,Rainwise IP-100,2013-09-08 21:50:00,
2013-09-08 17:52:00,63.0,41.0,29.39,NW,315,7.0,10.0,45,0.00,,,0.00,Rainwise IP-100,2013-09-08 21:52:00,
2013-09-08 17:57:00,63.0,41.0,29.39,NW,315,10.0,12.0,45,0.00,,,0.00,Rainwise IP-100,2013-09-08 21:57:00,
2013-09-08 18:02:00,63.0,41.0,29.39,NW,315,10.0,12.0,45,0.00,,,0.00,Rainwise IP-100,2013-09-08 22:02:00,
2013-09-08 18:07:00,63.0,41.0,29.39,NW,315,10.0,12.0,45,0.00,,,0.00,Rainwise IP-100,2013-09-08 22:07:00,
2013-09-08 18:12:00,63.0,41.0,29.39,NW,315,10.0,12.0,45,0.00,,,0.00,Rainwise IP-100,2013-09-08 22:12:00,
2013-09-08 18:17:00,61.0,40.0,29.40,NNW,337,9.0,12.0,47,0.00,,,0.00,Rainwise IP-100,2013-09-08 22:17:00,
2013-09-08 18:22:00,61.0,40.0,29.40,NNW,337,9.0,9.0,47,0.00,,,0.00,Rainwise IP-100,2013-09-08 22:22:00,
2013-09-08 18:27:00,61.0,41.0,29.41,NW,315,1.0,9.0,49,0.00,,,0.00,Rainwise IP-100,2013-09-08 22:27:00,
2013-09-08 18:32:00,61.0,41.0,29.41,NW,315,1.0,4.0,49,0.00,,,0.00,Rainwise IP-100,2013-09-08 22:32:00,
2013-09-08 18:37:00,61.0,41.0,29.41,NW,315,1.0,4.0,49,0.00,,,0.00,Rainwise IP-100,2013-09-08 22:37:00,
2013-09-08 18:42:00,59.0,43.0,29.41,West,270,10.0,10.0,56,0.00,,,0.00,Rainwise IP-100,2013-09-08 22:42:00,
2013-09-08 18:47:00,59.0,43.0,29.41,West,270,10.0,10.0,56,0.00,,,0.00,Rainwise IP-100,2013-09-08 22:47:00,
2013-09-08 18:52:00,59.0,42.0,29.42,NNW,337,6.0,10.0,53,0.00,,,0.00,Rainwise IP-100,2013-09-08 22:52:00,
2013-09-08 18:57:00,59.0,42.0,29.42,NNW,337,6.0,7.0,53,0.00,,,0.00,Rainwise IP-100,2013-09-08 22:57:00,
2013-09-08 19:02:00,59.0,42.0,29.42,NNW,337,6.0,7.0,53,0.00,,,0.00,Rainwise IP-100,2013-09-08 23:02:00,
2013-09-08 19:07:00,59.0,42.0,29.42,NNW,337,6.0,7.0,53,0.00,,,0.00,Rainwise IP-100,2013-09-08 23:07:00,
2013-09-08 19:12:00,59.0,42.0,29.42,NNW,337,6.0,7.0,53,0.00,,,0.00,Rainwise IP-100,2013-09-08 23:12:00,
2013-09-08 19:17:00,58.0,42.0,29.43,North,360,0.0,7.0,56,0.00,,,0.00,Rainwise IP-100,2013-09-08 23:17:00,
2013-09-08 19:22:00,58.0,42.0,29.43,North,360,0.0,1.0,56,0.00,,,0.00,Rainwise IP-100,2013-09-08 23:22:00,
2013-09-08 19:27:00,57.0,44.0,29.43,WSW,247,1.0,4.0,61,0.00,,,0.00,Rainwise IP-100,2013-09-08 23:27:00,
2013-09-08 19:32:00,57.0,44.0,29.43,WSW,247,1.0,4.0,61,0.00,,,0.00,Rainwise IP-100,2013-09-08 23:32:00,
2013-09-08 19:37:00,57.0,44.0,29.43,WSW,247,1.0,4.0,61,0.00,,,0.00,Rainwise IP-100,2013-09-08 23:37:00,
2013-09-08 19:42:00,57.0,44.0,29.43,WSW,247,1.0,4.0,61,0.00,,,0.00,Rainwise IP-100,2013-09-08 23:42:00,
2013-09-08 19:47:00,57.0,44.0,29.43,WSW,247,1.0,4.0,61,0.00,,,0.00,Rainwise IP-100,2013-09-08 23:47:00,
2013-09-08 19:52:00,55.0,42.0,29.46,NW,315,0.0,4.0,62,0.00,,,0.00,Rainwise IP-100,2013-09-08 23:52:00,
2013-09-08 19:53:00,55.0,42.0,29.46,NW,315,0.0,4.0,62,0.00,,,0.00,Rainwise IP-100,2013-09-08 23:53:00,
2013-09-08 19:58:00,55.0,45.0,29.46,WNW,292,2.0,3.0,69,0.00,,,0.00,Rainwise IP-100,2013-09-08 23:58:00,
2013-09-08 20:03:00,55.0,45.0,29.46,WNW,292,2.0,3.0,69,0.00,,,0.00,Rainwise IP-100,2013-09-09 00:03:00,
2013-09-08 20:08:00,55.0,45.0,29.46,WNW,292,2.0,3.0,69,0.00,,,0.00,Rainwise IP-100,2013-09-09 00:08:00,
2013-09-08 20:13:00,55.0,45.0,29.46,WNW,292,2.0,3.0,69,0.00,,,0.00,Rainwise IP-100,2013-09-09 00:13:00,
2013-09-08 20:18:00,55.0,45.0,29.46,WNW,292,2.0,3.0,69,0.00,,,0.00,Rainwise IP-100,2013-09-09 00:18:00,
2013-09-08 20:23:00,55.0,45.0,29.46,WNW,292,2.0,3.0,69,0.00,,,0.00,Rainwise IP-100,2013-09-09 00:23:00,
2013-09-08 20:28:00,54.0,42.0,29.48,WSW,247,3.0,3.0,64,0.00,,,0.00,Rainwise IP-100,2013-09-09 00:28:00,
2013-09-08 20:33:00,54.0,43.0,29.48,WSW,247,1.0,3.0,67,0.00,,,0.00,Rainwise IP-100,2013-09-09 00:33:00,
2013-09-08 20:38:00,54.0,44.0,29.48,WSW,247,0.0,3.0,69,0.00,,,0.00,Rainwise IP-100,2013-09-09 00:38:00,
2013-09-08 20:43:00,53.0,46.0,29.49,WSW,247,0.0,1.0,77,0.00,,,0.00,Rainwise IP-100,2013-09-09 00:43:00,
2013-09-08 20:48:00,53.0,46.0,29.49,WSW,247,0.0,1.0,77,0.00,,,0.00,Rainwise IP-100,2013-09-09 00:48:00,
2013-09-08 20:53:00,53.0,46.0,29.49,WSW,247,0.0,1.0,77,0.00,,,0.00,Rainwise IP-100,2013-09-09 00:53:00,
2013-09-08 20:58:00,52.0,45.0,29.50,WSW,247,1.0,2.0,77,0.00,,,0.00,Rainwise IP-100,2013-09-09 00:58:00,
2013-09-08 21:03:00,52.0,45.0,29.50,WSW,247,1.0,2.0,77,0.00,,,0.00,Rainwise IP-100,2013-09-09 01:03:00,
2013-09-08 21:08:00,51.0,45.0,29.50,West,270,2.0,4.0,79,0.00,,,0.00,Rainwise IP-100,2013-09-09 01:08:00,
2013-09-08 21:13:00,52.0,43.0,29.51,WNW,292,2.0,6.0,72,0.00,,,0.00,Rainwise IP-100,2013-09-09 01:13:00,
2013-09-08 21:18:00,52.0,43.0,29.51,NW,315,4.0,6.0,72,0.00,,,0.00,Rainwise IP-100,2013-09-09 01:18:00,
2013-09-08 21:23:00,53.0,43.0,29.50,WNW,292,3.0,5.0,69,0.00,,,0.00,Rainwise IP-100,2013-09-09 01:23:00,
2013-09-08 21:28:00,53.0,43.0,29.50,WNW,292,3.0,4.0,69,0.00,,,0.00,Rainwise IP-100,2013-09-09 01:28:00,
2013-09-08 21:33:00,53.0,44.0,29.50,SW,225,0.0,4.0,72,0.00,,,0.00,Rainwise IP-100,2013-09-09 01:33:00,
2013-09-08 21:38:00,52.0,44.0,29.51,SE,135,2.0,3.0,75,0.00,,,0.00,Rainwise IP-100,2013-09-09 01:38:00,
2013-09-08 21:43:00,52.0,45.0,29.51,SE,135,0.0,3.0,76,0.00,,,0.00,Rainwise IP-100,2013-09-09 01:43:00,
2013-09-08 21:48:00,52.0,45.0,29.51,SE,135,0.0,2.0,76,0.00,,,0.00,Rainwise IP-100,2013-09-09 01:48:00,
2013-09-08 21:53:00,52.0,45.0,29.51,SE,135,0.0,0.0,76,0.00,,,0.00,Rainwise IP-100,2013-09-09 01:53:00,
2013-09-08 21:58:00,52.0,45.0,29.51,SE,135,0.0,0.0,76,0.00,,,0.00,Rainwise IP-100,2013-09-09 01:58:00,
2013-09-08 22:03:00,52.0,45.0,29.51,SE,135,0.0,0.0,76,0.00,,,0.00,Rainwise IP-100,2013-09-09 02:03:00,
2013-09-08 22:08:00,50.0,45.0,29.52,SE,135,0.0,0.0,82,0.00,,,0.00,Rainwise IP-100,2013-09-09 02:08:00,
2013-09-08 22:13:00,50.0,45.0,29.52,SE,135,0.0,0.0,82,0.00,,,0.00,Rainwise IP-100,2013-09-09 02:13:00,
2013-09-08 22:18:00,49.0,45.0,29.53,West,270,3.0,3.0,85,0.00,,,0.00,Rainwise IP-100,2013-09-09 02:18:00,
2013-09-08 22:23:00,49.0,45.0,29.53,West,270,0.0,3.0,86,0.00,,,0.00,Rainwise IP-100,2013-09-09 02:23:00,
2013-09-08 22:28:00,49.0,45.0,29.53,West,270,0.0,3.0,87,0.00,,,0.00,Rainwise IP-100,2013-09-09 02:28:00,
2013-09-08 22:33:00,48.0,46.0,29.54,West,270,0.0,0.0,90,0.00,,,0.00,Rainwise IP-100,2013-09-09 02:33:00,
2013-09-08 22:38:00,47.0,44.0,29.54,West,270,0.0,0.0,92,0.00,,,0.00,Rainwise IP-100,2013-09-09 02:38:00,
2013-09-08 22:43:00,47.0,44.0,29.54,West,270,2.0,3.0,92,0.00,,,0.00,Rainwise IP-100,2013-09-09 02:43:00,
2013-09-08 22:48:00,47.0,44.0,29.54,West,270,2.0,3.0,92,0.00,,,0.00,Rainwise IP-100,2013-09-09 02:48:00,
2013-09-08 22:53:00,47.0,44.0,29.54,West,270,2.0,3.0,92,0.00,,,0.00,Rainwise IP-100,2013-09-09 02:53:00,
2013-09-08 22:58:00,47.0,44.0,29.54,West,270,2.0,3.0,92,0.00,,,0.00,Rainwise IP-100,2013-09-09 02:58:00,
2013-09-08 23:03:00,47.0,44.0,29.54,West,270,3.0,3.0,92,0.00,,,0.00,Rainwise IP-100,2013-09-09 03:03:00,
2013-09-08 23:08:00,47.0,44.0,29.54,West,270,2.0,3.0,92,0.00,,,0.00,Rainwise IP-100,2013-09-09 03:08:00,
2013-09-08 23:13:00,47.0,45.0,29.55,NW,315,0.0,3.0,95,0.00,,,0.00,Rainwise IP-100,2013-09-09 03:13:00,
2013-09-08 23:18:00,47.0,45.0,29.55,NW,315,0.0,1.0,95,0.00,,,0.00,Rainwise IP-100,2013-09-09 03:18:00,
2013-09-08 23:23:00,47.0,45.0,29.55,NW,315,0.0,1.0,95,0.00,,,0.00,Rainwise IP-100,2013-09-09 03:23:00,
2013-09-08 23:28:00,47.0,45.0,29.55,NW,315,0.0,1.0,95,0.00,,,0.00,Rainwise IP-100,2013-09-09 03:28:00,
2013-09-08 23:33:00,47.0,45.0,29.55,NW,315,0.0,1.0,95,0.00,,,0.00,Rainwise IP-100,2013-09-09 03:33:00,
2013-09-08 23:38:00,47.0,45.0,29.55,NW,315,0.0,1.0,95,0.00,,,0.00,Rainwise IP-100,2013-09-09 03:38:00,
2013-09-08 23:43:00,47.0,45.0,29.55,NW,315,0.0,1.0,95,0.00,,,0.00,Rainwise IP-100,2013-09-09 03:43:00,
2013-09-08 23:48:00,47.0,45.0,29.55,NW,315,0.0,1.0,95,0.00,,,0.00,Rainwise IP-100,2013-09-09 03:48:00,
2013-09-08 23:53:00,47.0,45.0,29.55,NW,315,0.0,1.0,95,0.00,,,0.00,Rainwise IP-100,2013-09-09 03:53:00,
2013-09-08 23:58:00,47.0,45.0,29.55,NW,315,0.0,1.0,95,0.00,,,0.00,Rainwise IP-100,2013-09-09 03:58:00,